Location: Franzen
(48.6167°N, 15.3833°E)
Time: 10:05:29
(UTC+00:00)

Cosmos 2341 Rocket - Pass Details

Date: 22 April 2021
Orbit: 969 x 1003 km, 82.9° (Epoch: 16 May)

Event Time Altitude Azimuth Distance (km) Brightness Sun altitude
Rises 23:21:17 0° 352° (N) 3,719 8.2 -28.6°
Reaches altitude 10° 23:23:50 10° 354° (N) 2,770 7.3 -28.6°
Maximum altitude 23:30:11 70° 78° (ENE) 1,061 4.1 -28.4°
Enters shadow 23:31:01 63° 124° (SE) 1,112 4.1 -28.4°
